Date String (YYYY-MM-DD hh:mm:ss) UTC,Instrument flags,Ambient pressure (hPa),Sample flow (lpm),Bypass flow (lpm),Sample temperature (°C),Ambient temperature (°C),ASC tube jacket temperature (°C),LED temperature (°C),Box temperature (°C),Sample RH (%),Span deviation,Mass concentration (μg/m³),Mass concentration (μg/m³),Mass concentration (μg/m³)
DateTimeUTC,F1_M11,P_M11,Q1_M11,Q2_M11,T1_M11,T2_M11,T3_M11,T4_M11,T5_M11,U1_M11,ZSPAN_M11,X0_M11,X2_M11,X1_M11
2022-07-24 02:00:00,,0832.3,5.00,0.00,31.1,27.9,00.0,39.4,32.0,35.0,0000.0,0017.07,0007.00,0004.79
2022-07-24 02:01:00,,0832.4,4.99,0.00,31.3,28.1,00.0,39.4,32.1,34.1,0000.0,0017.53,0007.23,0004.88
2022-07-24 02:02:00,,0832.4,5.00,0.00,31.4,28.2,00.0,39.4,32.1,33.9,0000.0,0017.27,0007.37,0004.97
2022-07-24 02:03:00,,0832.4,5.00,0.00,31.4,28.3,00.0,39.4,32.1,34.0,0001.7,0017.01,0007.53,0005.06
2022-07-24 02:04:00,,0832.4,5.00,0.00,31.5,28.4,00.0,39.5,32.1,34.0,0005.1,0016.84,0007.71,0005.15
2022-07-24 02:05:00,,0832.4,5.00,0.00,31.4,28.5,00.0,39.5,32.1,34.2,0005.3,0016.82,0007.92,0005.23
2022-07-24 02:06:00,,0832.3,4.99,0.00,31.5,28.0,00.0,39.4,32.1,35.2,0005.5,0016.87,0008.12,0005.34
2022-07-24 02:07:00,,0832.3,5.00,0.00,31.6,27.5,00.0,39.4,32.2,35.1,0005.3,0016.99,0008.25,0005.41
2022-07-24 02:08:00,,0832.3,5.00,0.00,31.8,27.3,00.0,39.4,32.2,34.7,0005.6,0016.91,0008.40,0005.47
2022-07-24 02:09:00,,0832.3,4.99,0.00,31.8,27.4,00.0,39.5,32.1,34.7,0005.5,0016.43,0008.31,0005.48
2022-07-24 02:10:00,,0832.2,5.01,0.00,31.8,27.5,00.0,39.5,32.0,34.4,0005.0,0015.32,0007.84,0005.36
2022-07-24 02:11:00,,0832.1,5.00,0.00,31.8,27.7,00.0,39.5,32.0,34.0,0004.8,0014.25,0007.39,0005.17
2022-07-24 02:12:00,,0832.1,5.01,0.00,31.8,27.8,00.0,39.6,32.0,34.2,0004.7,0013.46,0007.10,0005.05
2022-07-24 02:13:00,,0832.1,5.00,0.00,31.7,28.0,00.0,39.6,32.1,34.1,0004.1,0013.02,0006.88,0004.92
2022-07-24 02:14:00,,0832.1,5.00,0.00,31.7,28.1,00.0,39.7,32.1,34.3,0004.3,0012.57,0006.63,0004.80
2022-07-24 02:15:00,,0832.2,5.02,0.00,31.6,28.3,00.0,39.7,32.1,34.6,0004.4,0012.14,0006.43,0004.70
2022-07-24 02:16:00,,0832.3,4.99,0.00,31.6,28.4,00.0,39.7,32.1,34.7,0000.7,0011.77,0006.27,0004.64
2022-07-24 02:17:00,,0832.3,4.99,0.00,31.5,28.5,00.0,39.7,32.2,34.5,0000.0,0011.41,0006.10,0004.55
2022-07-24 02:18:00,,0832.4,5.00,0.00,31.5,28.6,00.0,39.7,32.2,34.3,0000.0,0010.95,0005.90,0004.46
2022-07-24 02:19:00,,0832.4,5.01,0.00,31.5,28.2,00.0,39.7,32.2,34.6,0000.0,0010.63,0005.74,0004.37
2022-07-24 02:20:00,,0832.4,4.99,0.00,31.4,27.6,00.0,39.6,32.1,34.7,0000.0,0010.42,0005.65,0004.32
2022-07-24 02:21:00,,0832.4,5.01,0.00,31.4,27.3,00.0,39.6,32.0,34.9,0000.0,0010.41,0005.61,0004.31
2022-07-24 02:22:00,,0832.3,4.99,0.00,31.3,27.3,00.0,39.6,31.9,35.2,0000.0,0010.57,0005.63,0004.32
2022-07-24 02:23:00,,0832.4,4.99,0.00,31.5,27.4,00.0,39.6,32.1,34.9,0000.0,0010.59,0005.64,0004.33
2022-07-24 02:24:00,,0832.4,5.01,0.00,31.6,27.6,00.0,39.6,32.1,34.9,0000.0,0010.82,0005.73,0004.37
2022-07-24 02:25:00,,0832.3,5.01,0.00,31.7,27.7,00.0,39.6,32.1,35.1,0000.0,0011.02,0005.84,0004.43
2022-07-24 02:26:00,,0832.3,4.99,0.00,31.9,27.9,00.0,39.6,32.2,34.4,0000.0,0011.10,0005.90,0004.46
2022-07-24 02:27:00,,0832.3,4.99,0.00,31.9,28.1,00.0,39.6,32.2,33.8,0000.0,0011.11,0005.89,0004.43
2022-07-24 02:28:00,,0832.3,5.00,0.00,32.0,28.2,00.0,39.7,32.2,33.7,0000.5,0011.17,0005.92,0004.42
2022-07-24 02:29:00,,0832.2,5.00,0.00,31.9,28.3,00.0,39.7,32.3,33.2,0001.4,0011.28,0005.95,0004.44
2022-07-24 02:30:00,,0832.1,5.00,0.00,31.9,28.4,00.0,39.8,32.3,33.2,0000.0,0011.35,0005.99,0004.46
2022-07-24 02:31:00,,0832.0,5.01,0.00,31.9,28.6,00.0,39.8,32.3,32.9,0000.0,0011.37,0006.01,0004.46
2022-07-24 02:32:00,,0832.1,5.01,0.00,31.9,28.6,00.0,39.8,32.3,32.9,0000.0,0011.30,0006.02,0004.46
2022-07-24 02:33:00,,0832.1,4.99,0.00,31.9,28.2,00.0,39.8,32.3,33.1,0000.0,0011.15,0006.00,0004.44
2022-07-24 02:34:00,,0832.0,5.01,0.00,31.8,27.6,00.0,39.8,32.2,33.1,0000.0,0011.22,0006.02,0004.43
2022-07-24 02:35:00,,0832.1,4.99,0.00,31.7,27.4,00.0,39.7,32.1,33.4,0000.0,0011.26,0006.00,0004.41
2022-07-24 02:36:00,,0832.1,4.99,0.00,31.5,27.4,00.0,39.8,32.0,34.1,0000.0,0011.22,0005.95,0004.39
2022-07-24 02:37:00,,0832.1,5.01,0.00,31.4,27.6,00.0,39.7,32.0,34.1,0000.0,0011.09,0005.90,0004.37
2022-07-24 02:38:00,,0832.1,4.99,0.00,31.4,27.7,00.0,39.7,32.0,34.0,0000.0,0010.92,0005.85,0004.36
2022-07-24 02:39:00,,0832.1,5.00,0.00,31.3,27.9,00.0,39.7,32.0,34.1,0000.0,0010.65,0005.75,0004.33
2022-07-24 02:40:00,,0832.1,5.00,0.00,31.2,28.0,00.0,39.7,32.0,34.3,0000.0,0010.47,0005.69,0004.30
2022-07-24 02:41:00,,0832.2,5.00,0.00,31.2,28.2,00.0,39.7,32.0,34.7,0000.0,0010.28,0005.62,0004.27
2022-07-24 02:42:00,,0832.3,5.00,0.00,31.2,28.3,00.0,39.7,32.1,34.8,0000.0,0010.22,0005.59,0004.25
2022-07-24 02:43:00,,0832.3,5.00,0.00,31.1,28.4,00.0,39.7,32.1,34.7,0000.0,0010.12,0005.52,0004.22
2022-07-24 02:44:00,,0832.3,5.00,0.00,31.1,28.6,00.0,39.6,32.1,34.9,0000.0,0010.20,0005.54,0004.23
2022-07-24 02:45:00,,0832.3,5.00,0.00,31.1,28.7,00.0,39.6,32.2,35.2,0000.0,0010.27,0005.57,0004.24
2022-07-24 02:46:00,,0832.3,5.01,0.00,31.4,28.4,00.0,39.6,32.3,35.1,0000.0,0010.13,0005.55,0004.24
2022-07-24 02:47:00,,0832.4,4.99,0.00,31.6,27.8,00.0,39.5,32.4,34.9,0000.0,0010.20,0005.53,0004.23
2022-07-24 02:48:00,,0832.3,5.02,0.00,31.7,27.5,00.0,39.5,32.3,35.1,0000.0,0010.80,0005.54,0004.21
2022-07-24 02:49:00,,0832.3,4.99,0.00,31.8,27.5,00.0,39.5,32.2,35.3,0000.0,0010.93,0005.57,0004.21
2022-07-24 02:50:00,,0832.3,5.01,0.00,32.0,27.6,00.0,39.5,32.3,34.9,0000.0,0011.07,0005.58,0004.22
2022-07-24 02:51:00,,0832.3,5.00,0.00,32.1,27.7,00.0,39.6,32.3,34.4,0000.0,0011.33,0005.62,0004.22
2022-07-24 02:52:00,,0832.3,4.99,0.00,32.2,27.8,00.0,39.6,32.3,34.1,0000.0,0011.32,0005.60,0004.22
2022-07-24 02:53:00,,0832.2,5.01,0.00,32.2,28.0,00.0,39.7,32.3,33.5,0000.0,0011.36,0005.57,0004.20
2022-07-24 02:54:00,,0832.1,5.00,0.00,32.2,28.1,00.0,39.8,32.3,33.1,0000.0,0011.37,0005.56,0004.19
2022-07-24 02:55:00,,0832.1,4.99,0.00,32.1,28.3,00.0,39.8,32.3,32.7,0000.0,0011.20,0005.50,0004.16
2022-07-24 02:56:00,,0832.1,5.00,0.00,32.1,28.4,00.0,39.9,32.3,32.4,0000.0,0010.95,0005.38,0004.11
2022-07-24 02:57:00,,0832.0,5.00,0.00,32.0,28.5,00.0,39.9,32.3,32.2,0000.0,0010.83,0005.32,0004.08
2022-07-24 02:58:00,,0832.0,4.99,0.00,32.0,28.5,00.0,40.0,32.3,32.6,0000.0,0010.57,0005.21,0004.04
2022-07-24 02:59:00,,0831.9,5.00,0.00,31.9,28.6,00.0,40.0,32.3,33.4,0000.0,0009.66,0005.12,0004.00
